カタログに戻る

FENGYUN 1C DEB

LostPO
NORAD 37025·DEBRIS·🇨🇳 China

打ち上げ May 10, 1999 から Taiyuan Satellite Launch Center

Loading…

次のパス (今後24時間)

TLE

古いSource: Space-Track

元期: Aug 19, 2014, 15:52 UTC

1 37025U 99025EDH 14231.66147259  .00001861  00000-0  10143-2 0  9990
2 37025  98.2449  15.7667 0059936 192.5604 232.0798 14.12334731365796

AllMySatでFENGYUN 1C DEBをリアルタイム追跡

Download on the App Store